Location: Lake Arresoe
(56.0000°N, 12.5000°E)
Time: 09:34:35
(UTC+02:00)

Cosmos 1674 - Visible Passes

Search period start: 17 October 2017 00:00
Search period end: 27 October 2017 00:00
Orbit: 497 x 523 km, 82.5° (Epoch: 16 October)

Date Brightness Start Highest point End Pass type
(mag) Time Alt. Az. Time Alt. Az. Time Alt. Az.
17 Oct 6.2 05:57:07 10° ESE 05:59:07 14° E 06:01:08 10° NE visible
17 Oct 5.7 18:53:07 10° NW 18:56:02 22° W 18:58:58 10° SW visible
18 Oct 6.4 05:41:04 10° ESE 05:42:26 12° E 05:43:47 10° ENE visible
18 Oct 5.4 18:36:08 10° NNW 18:39:18 26° W 18:42:28 10° SSW visible
19 Oct 2.9 06:56:52 10° S 07:00:36 75° E 07:04:20 10° NNE visible
20 Oct 3.3 06:40:07 10° S 06:43:47 60° E 06:47:30 10° NNE visible
21 Oct 3.7 06:23:24 10° S 06:27:00 49° E 06:30:38 10° NNE visible
22 Oct 4.1 06:06:44 10° SSE 06:10:14 40° E 06:13:45 10° NNE visible
23 Oct 4.5 05:50:06 10° SSE 05:53:27 32° E 05:56:50 10° NNE visible
24 Oct 4.9 05:33:31 10° SSE 05:36:42 27° E 05:39:54 10° NNE visible
24 Oct 3.2 07:08:46 10° SW 07:12:12 35° WNW 07:15:41 10° N visible
24 Oct 6.2 18:32:20 10° WNW 18:33:34 11° W 18:34:49 10° W visible
25 Oct 5.1 05:16:59 10° SE 05:19:56 23° E 05:22:55 10° NE visible
25 Oct 3.0 06:51:46 10° SW 06:55:20 42° WNW 06:58:56 10° N visible
26 Oct 5.4 05:00:31 10° SE 05:03:12 19° E 05:05:54 10° NE visible
26 Oct 2.7 06:34:50 10° SSW 06:38:29 51° WNW 06:42:09 10° N visible
